Regional Weather Roundup
Issued by NWS

Home | Current Version | Previous Version | Graphics & Text | Print | Product List | Glossary On
Versions: 1 2 3 4 5 6 7 8 9 10 11 12 13 14 15 16 17 18 19 20 21 22 23 24 25 26 27 28 29 30 31 32 33 34 35 36 37 38 39 40 41 42 43 44 45 46 47 48 49 50
000
ASUS43 KIND 041109
RWRIN

WEATHER ROUNDUP FOR INDIANA
NATIONAL WEATHER SERVICE INDIANAPOLIS IN
700 AM EDT MON MAY 04 2015

NOTE: "FAIR" INDICATES FEW OR NO CLOUDS BELOW 12,000 FEET WITH NO
SIGNIFICANT WEATHER AND/OR OBSTRUCTIONS TO VISIBILITY.

* - STATION DOES NOT REPORT WEATHER SUCH AS PRECIPITATION OR FOG.

+ - STATION NOT QUALITY CONTROLLED BY THE NATIONAL WEATHER SERVICE.
    USE DATA WITH CAUTION...ESPECIALLY DEWPOINT AND RELATIVE
    HUMIDITY OBSERVATIONS.

INZ001>003-010>013-019-020-041200-
NORTHWEST INDIANA

CITY           SKY/WX    TMP DP  RH WIND       PRES   REMARKS
GARY /AIRPORT/ CLOUDY    63 N/A N/A S14       29.94F
KNOX *+        CLOUDY    59  36  41 SW9       29.98S
LA PORTE +     CLOUDY    64  49  58 SW12      29.98R
MICHIGAN CITY+ RAIN      63  45  51 S9        29.95F
MONTICELLO +   CLOUDY    64  49  58 W8G17     30.04R
VALPARAISO     CLOUDY    61  51  70 SW10      29.98S

$$

LMZ046-743>745-041200-
SOUTHERN LAKE MICHIGAN

STATION/POSITION TIME  TEMP    WIND        PRES    WAVE
                       AIR SEA DIR/SP/G            HT
                 (UTC) (F)     (DEG/KT/KT) (MB)    (FT)
BURNS HARBOR     1100   62     180/ 11/ 14 1014.2S
MICHIGAN CITY    1100   64     170/ 13/ 15   N/A
5NW MICH CITY    1100   58 50  190/ 12/ 16   N/A     2

$$

INZ004-005-014>016-021>024-041200-
NORTH CENTRAL INDIANA

CITY           SKY/WX    TMP DP  RH WIND       PRES   REMARKS
ELKHART        PTCLDY    64  45  48 SW8G16    29.98
GOSHEN         CLOUDY    63  50  62 S14       30.00R
LOGANSPORT +   CLOUDY    61  45  55 S12       30.03R
PERU/GRISSOM   MOCLDY    63  49  59 SW15      30.02R
ROCHESTER +    LGT RAIN  64  50  59 SW9       30.04R
SOUTH BEND     CLOUDY    65  46  50 SW15      29.98R
WARSAW +       CLOUDY    64  46  52 SW8       30.01R

$$

INZ006>009-017-018-025>027-041200-
NORTHEAST INDIANA

CITY           SKY/WX    TMP DP  RH WIND       PRES   REMARKS
ANGOLA *+      CLOUDY    63  48  59 S10       30.00S
AUBURN +       CLOUDY    63  46  55 S7        30.03S
FORT WAYNE     MOCLDY    60  49  66 S12       30.04S
HUNTINGTON +   CLOUDY    61  48  61 S7        30.04R

$$

INZ028-029-035-036-043>045-051>053-041200-
WEST CENTRAL INDIANA

CITY           SKY/WX    TMP DP  RH WIND       PRES   REMARKS
CRAWFORDSVL +  CLOUDY    60  43  53 S10       30.06R
GREENCASTLE +  MOCLDY    63  43  48 SW6       30.08R
LAFAYETTE      CLOUDY    61  49  64 SW5       30.02R
TERRE HAUTE    MOCLDY    63  49  60 SW10      30.07R

$$

INZ030>032-037>040-046>048-054>057-064-065-041200-
CENTRAL INDIANA

CITY           SKY/WX    TMP DP  RH WIND       PRES   REMARKS
CP ATTERBURY + CLEAR     52  46  82 E5        30.11R
FISHERS *+     PTCLDY    57  52  82 S7        30.08R
FRANKFORT +    MOCLDY    60  49  67 S7        30.06R
GREENWOOD *+   PTCLDY    57  48  72 S6        30.09R
INDIANAPOLIS   MOCLDY    59  48  67 S8        30.06R
-EAGLE CREEK   PTCLDY    57  48  72 CALM      30.07R
MARION +       PTCLDY    58  47  66 S10       30.06R
MT COMFORT *+  CLEAR     57  43  58 S8        30.09R
SHELBYVILLE    CLEAR     60  49  66 S9        30.09R
ZIONSVILLE +   PTCLDY    60  47  62 S8        30.07R

$$

INZ033-034-041-042-049-050-058-059-041200-
EAST CENTRAL INDIANA

CITY           SKY/WX    TMP DP  RH WIND       PRES   REMARKS
MUNCIE         CLEAR     61  48  62 S9        30.07R

$$

INZ060-061-067>069-081>083-085>088-041200-
SOUTHWEST INDIANA

CITY           SKY/WX    TMP DP  RH WIND       PRES   REMARKS
EVANSVILLE     MOCLDY    62  50  64 S6        30.12R
HUNTINGBURG *+ MOCLDY    61  48  63 S6        30.12R
WASHINGTON +   CLOUDY    61  47  59 S10       30.10R

$$

INZ062-063-066-070>080-084-089>092-041200-
SOUTH CENTRAL AND SOUTHEAST INDIANA

CITY           SKY/WX    TMP DP  RH WIND       PRES   REMARKS
BEDFORD +      PTCLDY    57  48  72 S5        30.11
BLOOMINGTON    PTCLDY    60  48  64 SW6       30.10R
MADISON *+     CLEAR     54  48  82 CALM      30.15R
NORTH VERNON + CLEAR     57  50  77 S5        30.13R
SEYMOUR +      CLEAR     54  50  87 CALM      30.11R

$$




USA.gov is the U.S. government's official web portal to all federal, state and local government web resources and services.